daftar

Jackpot

Texas Poker Multi Jackpot System

Kini Telah hadir Jackpot SUPER ROYAL FLUSH

Kini Telah hadir Jackpot 2000 (khusus table VIP keatas).

Ikutilah global jackpot yang tersedia di system kami, dengan system jackpot terbaru dan pertama di indonesia, anda dapat membeli jackpot dengan harga 100 rupiah saja dan menangkan hadiahnya hingga puluhan juta rupiah.

Jackpot bukanlah suatu keharusan untuk dibeli, namun kami memberikan suatu fitur tambahan untuk member tercinta dari www.pokeronline77.net.

Terdapat tiga pilihan harga jackpot yang bisa anda beli yaitu :100,500,1000 dan 2000(khusus table VIP Keatas) rupiah.

Hadiah dari Multi jackpot system www.pokeronline77.net

  1. full house x 10 harga jackpot yang anda beli.
      (contoh:anda membeli 1000 maka:1000 X10 = 10.000)
  2. four of kind x 250 harga jackpot yang anda beli
      (contoh:anda membeli 1000 maka:1000 X250 = 250.000)
  3. Straight flush x 1200
      (contoh:anda membeli 1000 maka:1000 X1200 = 1.200.000)
  4. Royal flush x 10000 harga jackpot yang anda beli
      (contoh:anda membeli 1000 maka:1000 X10000 = 10.000.000)
  5. SUPER ROYAL FLUSH x 30000 harga jackpot yang anda beli
      (contoh:anda membeli 1000 maka:1000 X30000 = 30.000.000)

Kondisi kartu

  1. full house adalah kondisi kartu dimana kartu anda dan kartu tengah dengan total 7 kartu bisa mendapatkan nilai 5 kartu dengan kombinasi 1 tris(three of kind) dan 1 pair, contoh 3 kartu 10 dan 2 kartu 5
  2. Four of kind adalah kondisi kartu dimana kartu anda dan kartu tengah dengan total 7 kartu bisa mendapatkan nilai 5 kartu dengan kombinasi 4 kartu yang sama jumlah dan 1 kartu apapun juga contoh anda mendapatkan 4 buah kartu angka 3 dan 1 kartu apapun.
  3. Staright flush adalah kondisi kartu dimana kartu anda dan kartu tengah dengan total 7 kartu bisa mendapatkan nilai 5 kartu dengan kombinasi seri / staright dengan kembang yang sama contoh : urutan kartu dari angka 5, 6, 7, 8 , 9 10 dengan kembang yg sama misalnya as hati
  4. Royal flush adalah kondisi kartu dimana kartu anda dan kartu tengah dengan total 7 kartu bisa mendapatkan nilai 5 kartu dengan kombinasi seri / staright dengan kembang yang sama tetapi kartu tersebut haruslah dimulai dari 10. contoh 10, Queen, Jack, King dan aces dengan kembang yang sama
  5. Super Royal flush adalah kondisi kartu dimana Kedua kartu anda digabung dengan 3 kartu pertama meja haruslah royal flush. contoh kartu anda 10,Queen kembang sama dan 3 kartu pertama meja adalah Jack, King dan aces dengan kembang yang sama

Demikian adalah penjelasan dari Multi Jackpot www.pokeronline77.net terima kasih dan selamat bermain salam hoki dari kami

Texas Poker Jackpot Winner

TOP SUPER ROYAL FLUSH
No.TanggalNamaPriceWin
125/05 16:11YUUUAHH47Super Royal flush30,000,000
225/05 11:58PETEY14Super Royal flush15,000,000
324/05 16:53EBENG99Super Royal flush15,000,000
424/05 14:50IDNGEBOL65Super Royal flush3,000,000
524/05 14:43UNAY17Super Royal flush3,000,000
TOP ROYAL FLUSH
No.TanggalNamaPriceWin
125/05 16:36ANDR1K4Royal flush1,000,000
225/05 16:23GORILLA77Royal flush5,000,000
325/05 16:23PEKGOOOOOORoyal flush1,000,000
425/05 16:03KEPLEK07Royal flush10,000,000
525/05 15:50PLASTOPRoyal flush10,000,000
TOP STRAIGHT FLUSH
No.TanggalNamaPriceWin
125/05 17:22EAAD7722Straight Flush600,000
225/05 17:21AGI82Straight Flush600,000
325/05 17:20CAHSULTENGStraight Flush1,200,000
425/05 17:16TIKHAM88Straight Flush1,200,000
525/05 17:15T0T0NK_9Straight Flush120,000
LATEST JACKPOT
No.TanggalNamaPriceWin
125/05 17:24CAKA1939Full House10,000
225/05 17:24KAPALANFull House1,000
325/05 17:24RODALING60Full House10,000
425/05 17:24ROBY73Full House5,000
525/05 17:24KIFLY77Full House1,000
625/05 17:24B44NKJ4RWOFull House1,000
725/05 17:24MUJENEH_Four Of A Kind25,000
825/05 17:24MO2MOFull House5,000
925/05 17:24C3NTR0NGFull House1,000
1025/05 17:24ACHAICUS99Full House1,000
1125/05 17:24NADAYFull House10,000
1225/05 17:24POREX212Full House1,000
1325/05 17:24HM99Full House5,000
1425/05 17:24ALI40Full House1,000
1525/05 17:24KEMB0Full House5,000
1625/05 17:24V0P3EKP9JQFull House1,000
1725/05 17:24BAKANOFull House10,000
1825/05 17:24ARDI3588Full House5,000
1925/05 17:23NMHKY678Full House10,000
2025/05 17:23BOY330Full House5,000
2125/05 17:23PARGA08Full House5,000
2225/05 17:23D701DB6EFull House1,000
2325/05 17:23OFAB100Full House10,000
2425/05 17:23SINAR012Full House1,000
2525/05 17:23BAALVERR88Full House10,000
2625/05 17:23SHEVA_GTFull House1,000
2725/05 17:23FAHRII10Full House5,000
2825/05 17:23TUNDUH88Full House5,000
2925/05 17:23BA9ANAKFull House5,000
3025/05 17:23JEMBETTEFull House5,000
3125/05 17:23KUDO24Full House10,000
3225/05 17:23FHADI1997Full House5,000
3325/05 17:23EXOTIC_9Full House1,000
3425/05 17:23D0BDEA15Full House5,000
3525/05 17:23ANONYMUSEFull House10,000
3625/05 17:23SONYA46Full House10,000
3725/05 17:23DAB999Full House1,000
3825/05 17:23AKIFA80Full House1,000
3925/05 17:23Q2WXHZOZIRFull House1,000
4025/05 17:23HOKIGAN93Full House10,000
4125/05 17:23PATAL0IIFull House5,000
4225/05 17:23XQYV5MN0A7Four Of A Kind500,000
4325/05 17:23SINTRONGFull House5,000
4425/05 17:23BESOLFull House1,000
4525/05 17:23OZY703Full House1,000
4625/05 17:23TIMUR_58Four Of A Kind125,000
4725/05 17:23TKW83Full House1,000
4825/05 17:23LANMEZFull House5,000
4925/05 17:23PHIAN75Full House20,000
5025/05 17:23ZENSREDFull House5,000

Domino Multi Jackpot System

Ikutilah global jackpot yang tersedia di system kami, dengan system jackpot terbaru dan pertama di indonesia, anda dapat membeli jackpot dengan harga 100 rupiah saja dan menangkan hadiahnya hingga puluhan juta rupiah.

Jackpot bukanlah suatu keharusan untuk dibeli, namun kami memberikan suatu fitur tambahan untuk member tercinta dari www.pokeronline77.net.

Terdapat tiga pilihan harga jackpot yang bisa anda beli yaitu :100,500 dan 1000 rupiah.

Hadiah dari Multi jackpot system www.pokeronline77.net

  1. Murni Kecil x 50 harga jackpot yang anda beli.
      (contoh:anda membeli 1000 maka:1000 X 50 = 50.000)
  2. Murni Besar x 50 harga jackpot yang anda beli
      (contoh:anda membeli 1000 maka:1000 X 50 = 50.000)
  3. BALAK x 100 harga jackpot yang anda beli
      (contoh:anda membeli 1000 maka:1000 X 100 = 100.000)
  4. ENAM DEWA x 6666 harga jackpot yang anda beli
      (contoh:anda membeli 1000 maka:1000 X 6666 = 6.666.000)

Demikian adalah penjelasan dari Multi Jackpot www.pokeronline77.net terima kasih dan selamat bermain salam hoki dari kami

Domino Jackpot Winner

TOP ENAM DEWA
No.TanggalNamaPriceWin
125/05 15:02BFBCFD7Cmurni enam6,666,000
225/05 14:26O33murni enam666,600
325/05 13:57WMJACKPOTmurni enam3,333,000
425/05 13:40CVSIJ0ES2Xmurni enam3,333,000
525/05 13:09NOCT_88murni enam3,333,000
TOP BALAK
No.TanggalNamaPriceWin
125/05 17:22KRENTIL72balak100,000
225/05 17:22SOHAHAUbalak50,000
325/05 17:21EX44MPLE33balak50,000
425/05 17:21KMR07balak100,000
525/05 17:20YANUA999balak100,000
LATEST JACKPOT
No.TanggalNamaPriceWin
125/05 17:23MISTER86murni kecil50,000
225/05 17:23QQFR08murni kecil50,000
325/05 17:23MAXASmurni kecil5,000
425/05 17:23SIMPAK55murni besar25,000
525/05 17:22KRENTIL72balak100,000
625/05 17:22RUSTEZEmurni kecil5,000
725/05 17:22SOHAHAUbalak50,000
825/05 17:21EX44MPLE33balak50,000
925/05 17:21TOLEP39murni besar5,000
1025/05 17:21KMR07balak100,000
1125/05 17:20REZEZmurni besar5,000
1225/05 17:20YANUA999balak100,000
1325/05 17:20BOLOBOLO11balak50,000
1425/05 17:20GITEMmurni besar25,000
1525/05 17:19CUNGSSSmurni besar50,000
1625/05 17:19SOGLEKmurni kecil50,000
1725/05 17:19SIMPAK55murni besar25,000
1825/05 17:18DN4444murni besar5,000
1925/05 17:18JUD1_R1S_murni kecil5,000
2025/05 17:17SUPERSIX22murni kecil50,000
2125/05 17:17GAPLEXXXmurni kecil50,000
2225/05 17:17MESDEDmurni besar50,000
2325/05 17:16POER04murni kecil25,000
2425/05 17:15N1K3_01murni besar25,000
2525/05 17:15KEBO170balak50,000
2625/05 17:14ALLYENKPmurni kecil50,000
2725/05 17:14CHILL002murni kecil50,000
2825/05 17:13BANGBUDmurni kecil50,000
2925/05 17:13TEMPEKTUOmurni kecil25,000
3025/05 17:12WMJACKPOTmurni kecil25,000
3125/05 17:12FIKAR597murni kecil50,000
3225/05 17:12THORD75murni besar50,000
3325/05 17:12GIL81murni kecil50,000
3425/05 17:11KSU2RV695Fmurni besar5,000
3525/05 17:11ZIDAN111murni kecil25,000
3625/05 17:10DIAMAJA201murni besar25,000
3725/05 17:10GIOK16murni besar50,000
3825/05 17:09BUNDHUJHIEmurni besar5,000
3925/05 17:09INODEmurni kecil5,000
4025/05 17:08QQSASTROmurni besar50,000
4125/05 17:08ERUH80balak100,000
4225/05 17:08TEMPEKTUObalak50,000
4325/05 17:08WALUT333murni kecil5,000
4425/05 17:08FAD212balak100,000
4525/05 17:07JAGALAH99murni kecil50,000
4625/05 17:05GMT123murni kecil50,000
4725/05 17:05DIAMAJA201murni kecil25,000
4825/05 17:04AJOWD99balak50,000
4925/05 17:04TEGUK123murni besar25,000
5025/05 17:03BEKET345balak10,000

Ceme Multi Jackpot System

Jackpot dilihat dari gabungan kartu pemain dengan kartu bandar. Bandar harus membeli jackpot sebanyak jumlah player yang sedang duduk. Sebagai contoh bila terdapat 3 pemain duduk bermain, dan bandar memutuskan untuk membeli jackpot Rp 1.000, maka pada periode tersebut bandar akan membeli jackpot sebanyak 3xRp1.000 = Rp3.000.

Jackpot bukanlah suatu keharusan untuk dibeli, namun kami memberikan suatu fitur tambahan untuk member tercinta dari www.pokeronline77.net.

Terdapat tiga pilihan harga jackpot yang bisa anda beli yaitu :100,500 dan 1000 rupiah.

Hadiah dari Multi jackpot system www.pokeronline77.net

  1. Murni Kecil x 50 harga jackpot yang anda beli.
      (contoh:anda membeli 1000 maka:1000 X 50 = 50.000)
  2. Murni Besar x 50 harga jackpot yang anda beli
      (contoh:anda membeli 1000 maka:1000 X 50 = 50.000)
  3. BALAK x 200 harga jackpot yang anda beli
      (contoh:anda membeli 1000 maka:1000 X 200 = 200.000)
  4. ENAM DEWA x 6666 harga jackpot yang anda beli
      (contoh:anda membeli 1000 maka:1000 X 6666 = 6.666.000)

Demikian adalah penjelasan dari Multi Jackpot www.pokeronline77.net terima kasih dan selamat bermain salam hoki dari kami

Ceme Jackpot Winner

TOP ENAM DEWA
No.TanggalNamaPriceWin
125/05 17:21RAJAPUYUHmurni enam6,666,000
225/05 17:08OVAN89murni enam6,666,000
325/05 16:34LELAPOKILmurni enam6,666,000
425/05 16:33TELEGUWImurni enam3,333,000
525/05 16:19SLIRO29murni enam6,666,000
TOP BALAK
No.TanggalNamaPriceWin
125/05 17:23FARELAGUSbalak20,000
225/05 17:23PITIKUbalak200,000
325/05 17:23CCCCCMbalak200,000
425/05 17:22EKAWINbalak200,000
525/05 17:21A234LUCKbalak200,000
LATEST JACKPOT
No.TanggalNamaPriceWin
125/05 17:24DBA56DFDmurni kecil50,000
225/05 17:24KRTMLRmurni kecil25,000
325/05 17:24HAQIKAT07murni kecil50,000
425/05 17:24MEYMEY088murni kecil25,000
525/05 17:23MANSWAATmurni besar50,000
625/05 17:23JANGNDAmurni besar5,000
725/05 17:23C3MSLNBR03murni kecil50,000
825/05 17:23ASEP557murni kecil5,000
925/05 17:23CHUMAmurni besar50,000
1025/05 17:23DBA56DFDmurni kecil50,000
1125/05 17:23KRTMLRmurni kecil25,000
1225/05 17:23FARELAGUSbalak20,000
1325/05 17:23PITIKUbalak200,000
1425/05 17:23KLP22murni kecil50,000
1525/05 17:23SAYAKAYA89murni besar50,000
1625/05 17:23ABDULMUFIDmurni besar25,000
1725/05 17:23CCCCCMbalak200,000
1825/05 17:23DBA56DFDmurni besar50,000
1925/05 17:23KRTMLRmurni besar25,000
2025/05 17:23BONEEK24murni kecil5,000
2125/05 17:23GUSTIFAImurni kecil25,000
2225/05 17:23RAJASAKUmurni besar50,000
2325/05 17:23CHIPTO44murni besar25,000
2425/05 17:22HADIR89TRSmurni kecil50,000
2525/05 17:22YAHYAKADALmurni kecil50,000
2625/05 17:22BEBEN333murni besar5,000
2725/05 17:22JUDENG_WAEmurni kecil50,000
2825/05 17:22GHOST3Rmurni besar25,000
2925/05 17:22DATTUK90murni besar50,000
3025/05 17:22JOIN234murni kecil50,000
3125/05 17:22D512366Emurni kecil5,000
3225/05 17:22EKAWINbalak200,000
3325/05 17:22FARELAGUSmurni kecil5,000
3425/05 17:22KALENG999murni kecil50,000
3525/05 17:22YUDIJSmurni kecil25,000
3625/05 17:22COSTA86murni besar50,000
3725/05 17:21BAJONG22murni besar50,000
3825/05 17:21OLENG510murni besar5,000
3925/05 17:21A234LUCKbalak200,000
4025/05 17:21RAJAPUYUHmurni enam6,666,000
4125/05 17:21REZAREYmurni kecil5,000
4225/05 17:21BATABAmurni kecil25,000
4325/05 17:21POPAPOPETmurni kecil50,000
4425/05 17:21GENDUG123murni kecil25,000
4525/05 17:21POPAPOPETmurni kecil50,000
4625/05 17:20GAZEBO23murni besar5,000
4725/05 17:20E038A8BCmurni kecil25,000
4825/05 17:20FAX9balak200,000
4925/05 17:20GENDOK007balak100,000
5025/05 17:19BONCHU03murni besar50,000